Location: *
(52.2090°N, 4.1550°W)
Time: 17:59:55
(UTC+00:00)

Cosmos 1812 - Pass Details

Date: 19 July 2019
Orbit: 519 x 521 km, 82.5° (Epoch: 24 August)

Event Time Altitude Azimuth Distance (km) Brightness Sun altitude
Rises 23:45:43 0° 344° (NNW) 2,663 8.1 -16.6°
Reaches altitude 10° 23:47:55 10° 338° (NNW) 1,770 6.6 -16.6°
Maximum altitude 23:51:38 46° 266° (W) 717 3.4 -16.7°
Enters shadow 23:53:09 29° 212° (SSW) 972 3.6 -16.7°
